カタログに戻る

STARLINK-37897

運用中通信VLEO
NORAD 69531·PAYLOAD·🇺🇸 United States

打ち上げ Jun 12, 2026 から Cape Canaveral Space Force Station

Loading…

次のパス (今後24時間)

TLE

最新Source: CelesTrak SupGP

元期: Sep 14, 2026, 23:16 UTC

1 69531C 26133Z   26257.96993056  .00033630  00000+0  99347-3 0  2574
2 69531  53.1570 255.2103 0001377  92.4635 126.9193 15.34378229    18

AllMySatでSTARLINK-37897をリアルタイム追跡

Download on the App Store